User: anonymous   Login
Location: Unspecified
(0.0000°N, 0.0000°E)
Time: 21:42:39
(UTC+02:00)
Language:

Cosmos 1703 - Orbit

View from above orbital plane
View from above orbital plane
View from above satellite
View from above satellite

Ground track
Ground track

The orbit data is extracted from the following two-line orbital elements,

1 16262U 85108A   18145.82623929 +.00001092 +00000-0 +63933-4 0  9999
2 16262 082.4803 273.3215 0012156 169.1867 190.9626 15.10754830770360
Epoch (UTC): 25 May 2018 19:49:47
Eccentricity: 0.0012156
inclination: 82.4803°
perigee height: 525 km
apogee height: 542 km
right ascension of ascending node: 273.3215°
argument of perigee: 169.1867°
revolutions per day: 15.10754830
mean anomaly at epoch: 190.9626°
orbit number at epoch: 77036

The dashed part of the orbit path shows where the satellite is in the earth's shadow,  

DLR